Weather Roundup
Issued by NWS

Home | Current Version | Previous Version | Text Only | Print | Product List | Glossary On
Versions: 1 2 3 4 5 6 7 8 9 10 11 12 13 14 15 16 17 18 19 20 21 22 23 24 25 26 27 28 29 30 31 32 33 34 35 36 37 38 39 40 41 42 43 44 45 46 47 48 49 50
956
NZUS93 KARX 040210
HRRWXR

CURRENT HOURLY OBSERVATIONS ACROSS
MUCH OF THE UPPER MISSISSIPPI VALLEY
NATIONAL WEATHER SERVICE LA CROSSE WI
800 PM CST SAT DEC 03 2016


...SOUTHEAST MINNESOTA...


CITY           SKY/WX    TMP DP  RH WIND       PRES   REMARKS
ROCHESTER      PTCLDY    30  25  81 SE8       30.17F WCI  22
ROCHESTER/MAYO CLOUDY    30  24  78 SE6       30.18F WCI  24
WINONA         CLOUDY    32  27  80 SE6       30.22F WCI  26
AUSTIN         MOCLDY    30  28  93 SE5       30.16F WCI  25
ALBERT LEA     CLOUDY    36  36 100 S7        30.15F FOG     WCI  30
DODGE CENTER   PTCLDY    30  27  86 SE8       30.16F WCI  23
PRESTON        CLOUDY    30  24  78 SE3       30.19F
OWATONNA       CLOUDY    32  28  86 SE6       30.16F WCI  26
FARIBAULT      CLOUDY    34  28  80 SE8       30.16F WCI  27
$$

...ELSEWHERE IN MINNESOTA...


CITY           SKY/WX    TMP DP  RH WIND       PRES   REMARKS
MINNEAPOLIS    CLOUDY    31  23  72 SE10      30.17F WCI  22
INTNL FALLS    CLOUDY    27  19  72 S7        30.12F WCI  19
DULUTH         CLOUDY    28  20  71 S12       30.16F WCI  18
RED WING       CLOUDY    32  21  64 SE7       30.19F WCI  26
REDWOOD FALLS  LGT SNOW  33  31  92 SE9       30.09F FOG     WCI  25
MANKATO        FLURRIES  33  31  92 SE9       30.14F WCI  25
WORTHINGTON    MIX PCPN  32  31  96 S14       30.07F FOG     WCI  22
FAIRMONT       CLOUDY    33  32  96 S13       30.13F WCI  24
$$

...SOUTHWEST WISCONSIN...


CITY           SKY/WX    TMP DP  RH WIND       PRES   REMARKS
LA CROSSE      MOCLDY    34  26  72 E6        30.23F WCI  29
PRAIRIE DU CHI CLOUDY    33  27  77 E5        30.25S WCI  29
BOSCOBEL       CLOUDY    33  26  75 CALM      30.26F
LONE ROCK      CLOUDY    31  26  82 E3        30.26F
PLATTEVILLE    PTCLDY    32  29  90 SE5       30.25S WCI  27
FORT MC COY    CLOUDY    31  27  84 CALM      30.24F
CAMP DOUGLAS   CLOUDY    31  24  77 E3        30.22F
MAUSTON-NEW LI CLOUDY    32  25  77 CALM      30.23F
VIROQUA        CLOUDY    30  26  86 SE6       30.21S WCI  24
WIS DELLS      CLOUDY    31  26  79 CALM      30.24F
$$

...ELSEWHERE IN WISCONSIN...


CITY           SKY/WX    TMP DP  RH WIND       PRES   REMARKS
MILWAUKEE      CLOUDY    32  22  66 SW5       30.29S WCI  27
MADISON        CLOUDY    32  24  72 CALM      30.26F
GREEN BAY      CLOUDY    33  26  75 CALM      30.26F
EAU CLAIRE     CLOUDY    29  21  72 CALM      30.21F
BLACK RVR FLS  CLOUDY    30  24  78 CALM      30.23F
MEDFORD        CLOUDY    27  22  79 S6        30.21S WCI  21
WAUSAU         CLOUDY    28  21  75 W7        30.22F WCI  21
WIS RAPIDS     CLOUDY    29  23  78 SE3       30.25F
MARSHFIELD     CLOUDY    28  21  75 SE3       30.21F
RICE LAKE      CLOUDY    28  21  74 SE3       30.22F
$$

...NORTHEAST IOWA...


CITY           SKY/WX    TMP DP  RH WIND       PRES   REMARKS
WATERLOO       CLOUDY    34  32  92 S6        30.21F WCI  29
DUBUQUE        CLOUDY    33  27  78 SE7       30.24F WCI  27
DECORAH        CLOUDY    32  27  80 SE5       30.20S WCI  27
MASON CITY     LGT SNOW  33  32  96 S8        30.18S FOG     WCI  26
CHARLES CITY   MIX PCPN  36  30  80 SE8       30.19F WCI  29
OELWEIN          N/A     36  32  87 S13       30.21F WCI  27
$$

...ELSEWHERE IN IOWA...


CITY           SKY/WX    TMP DP  RH WIND       PRES   REMARKS
DES MOINES     LGT RAIN  39  33  79 SE10      30.17F WCI  32
IOWA CITY      CLOUDY    36  29  75 SE7       30.27F WCI  30
FORT DODGE     CLOUDY    34  30  86 SE6       30.14F WCI  29
MARSHALLTOWN   CLOUDY    35  33  92 SE9       30.19F WCI  28
CEDAR RAPIDS   CLOUDY    35  30  82 SE6       30.23F WCI  30
$$

...NORTHERN ILLINOIS...


CITY           SKY/WX    TMP DP  RH WIND       PRES   REMARKS
CHICAGO-OHARE  CLOUDY    32  24  72 SW3       30.30R
CHICAGO-MIDWAY MOCLDY    32  23  69 S3        30.31S
MOLINE         PTCLDY    34  26  72 SE9       30.27F WCI  27
ROCKFORD       CLOUDY    33  26  75 SE3       30.30F
PEORIA         CLOUDY    34  27  75 E6        30.30S WCI  29
$$

NOTE: "FAIR" INDICATES FEW OR NO CLOUDS BELOW 12,000 FEET WITH NO
SIGNIFICANT WEATHER AND/OR OBSTRUCTIONS TO VISIBILITY. WIND
SPEEDS ARE IN MILES-PER-HOUR.




USA.gov is the U.S. government's official web portal to all federal, state and local government web resources and services.